User: anonymous   Login
Location: Ostrava
(49.8330°N, 18.2830°E)
Time: 09:01:14
(UTC+02:00)
Language:

Cosmos 1766 - Orbit

View from above orbital plane
View from above orbital plane
View from above satellite
View from above satellite

Ground track
Ground track

The orbit data is extracted from the following two-line orbital elements,

1 16881U 86055A   15123.83404749  .00003178  00000-0  20453-3 0  9995
2 16881 082.5113 061.1773 0010639 209.2218 150.8416 15.08015498564487
Epoch (UTC): 03 May 2015 20:01:01
Eccentricity: 0.0010639
inclination: 82.5113°
perigee height: 535 km
apogee height: 549 km
right ascension of ascending node: 61.1773°
argument of perigee: 209.2218°
revolutions per day: 15.08015498
mean anomaly at epoch: 150.8416°
orbit number at epoch: 56448

The dashed part of the orbit path shows where the satellite is in the earth's shadow,  

DLR